Каджи-Сай

Киргизия     42°08′28″N   77°10′38″E
темп.,
°C
ветер,
м/с
пор.,
м/с
влажн.,
%
обл.,
%
осадки,
мм/ч
давл.,
гПа
погр.,
м
26 февраля, пт
пт2600:00−3з10107295 0.3 10331088
03:00−4зсз7764100 0.1 10341149
06:00−4зсз8864100 0.3 10341159
09:00−4зсз5660100 0.5 10331286
12:00−4ссз3455100 0.6 10281212
15:00−4с326787 0.1 1025814
18:00−4всв115278 0.3 1028727
21:00−3зсз02434 0.0 10321093
27 февраля, сб
сб2700:00−4з23618 0.1 1032995
03:00−4ссз2375100 0.3 1030580
06:00−4сз3359100 0.9 1029987
09:00−3зсз3364100 0.1 1029955
12:00−3сз3360100 0.2 10241031
15:00−2сз2258100 0.0 1023944
18:00−2в2154100 0.1 1027791
21:00−1з2246100 0.1 10331254
28 февраля, вс
вс2800:00−2сз5568100 0.2 1035926
03:00−2зсз335542 0.0 10381129
06:00−2зсз335471 0.0 10391105
09:00−2зсз3357100 0.0 1037933
12:00−2сз4366100 0.1 1030842
15:00−1ссв217076 0.1 1026662
18:00−1св326757 0.1 1027585
21:000св32630 0.0 1030567
1 марта, пн
пн100:000св32600 0.0 1030584
03:000св32590 0.0 1029598
06:000св32610 0.0 1029623
09:00+1св32620 0.0 1029600
12:00+1св32680 0.0 1024494
15:00+2св32690 0.0 1021436
18:00+2всв336612 0.0 1023286
21:00+2всв336169 0.0 1027312
2 марта, вт
вт200:00+2св335738 0.0 1028391
03:00+2св22580 0.0 1027418
06:00+2св22600 0.0 1027433
09:00+3ссв21610 0.0 1026477
12:00+3ссв32620 0.0 1022408
15:00+4св33600 0.0 1019346
18:00+4всв225450 0.0 1021332
21:00+4всв2256100 0.0 1023354